Location: Proctor
(47.8934°N, 114.3048°W)
Time: 01:17:01
(UTC+00:00)

POLYITAN 1 - Pass Details

Date: 03 July 2022
Orbit: 586 x 605 km, 98.0° (Epoch: 15 August)

Event Time Altitude Azimuth Distance (km) Brightness Sun altitude
Rises 08:05:37 0° 33° (NNE) 2,862 ? -18.9°
Reaches altitude 10° 08:09:12 10° 66° (ENE) 1,956 ? -18.9°
Maximum altitude 08:10:49 12° 88° (E) 1,830 ? -18.9°
Drops below altitude 10° 08:12:25 10° 111° (ESE) 1,952 ? -18.8°
Enters shadow 08:13:02 - 118° (ESE) 2,056 ? -18.8°
